DW9882 Weather Reports


Display with metric or nautical units.
time (UTC)temp
F
wind
direction
speed
MPH
gust
MPH
rain 1hr
in
rain 24hr
in
rain mn
in
humidity
%
barometer
mb
20210126151707 22 58 2.0 5.0 0.00 0.00 0.00 89 1008.4
20210126151202 23 40 3.0 6.0 0.00 0.00 0.00 89 1008.4
20210126150705 23 38 2.0 5.0 0.00 0.00 0.00 89 1008.3
20210126150202 23 73 2.0 5.0 0.00 0.00 0.00 89 1008.3
20210126145702 23 57 2.0 5.0 0.00 0.00 0.00 89 1008.3
20210126145202 23 86 2.0 3.0 0.00 0.00 0.00 89 1008.3
20210126144702 23 57 2.0 3.0 0.00 0.00 0.00 89 1008.2
20210126144208 23 56 2.0 5.0 0.00 0.00 0.00 89 1008.2
20210126143704 23 28 2.0 7.0 0.00 0.00 0.00 89 1008.1
20210126143204 23 59 3.0 5.0 0.00 0.00 0.00 89 1008.1
20210126142701 23 48 3.0 9.0 0.00 0.00 0.00 89 1008.0
20210126142202 23 52 2.0 3.0 0.00 0.00 0.00 89 1007.9
20210126141702 23 38 1.0 3.0 0.00 0.00 0.00 89 1007.9
20210126141203 23 60 1.0 3.0 0.00 0.00 0.00 89 1007.8
20210126140702 23 28 1.0 5.0 0.00 0.00 0.00 89 1007.8
20210126140202 23 42 0.0 3.0 0.00 0.00 0.00 89 1007.8
20210126135702 23 32 2.0 5.0 0.00 0.00 0.00 89 1007.7
20210126135203 23 18 2.0 5.0 0.00 0.00 0.00 89 1007.7
20210126134704 23 44 1.0 3.0 0.00 0.00 0.00 88 1007.7
20210126134201 23 36 1.0 3.0 0.00 0.00 0.00 88 1007.6
20210126133702 23 34 2.0 5.0 0.00 0.00 0.00 88 1007.7
20210126133201 23 44 2.0 3.0 0.00 0.00 0.00 88 1007.6
20210126132702 23 35 2.0 3.0 0.00 0.00 0.00 88 1007.6
20210126132201 23 15 1.0 2.0 0.00 0.00 0.00 88 1007.5
20210126131703 23 25 0.0 2.0 0.00 0.00 0.00 88 1007.7
20210126131203 23 39 2.0 3.0 0.00 0.00 0.00 88 1007.5
20210126130706 23 11 0.0 2.0 0.00 0.00 0.00 88 1007.6
20210126130205 23 5 1.0 3.0 0.00 0.00 0.00 88 1007.7
20210126125702 23 36 0.0 3.0 0.00 0.00 0.00 88 1007.6
20210126125205 23 30 1.0 3.0 0.00 0.00 0.00 88 1007.7
20210126124709 23 0 1.0 5.0 0.00 0.00 0.00 88 1007.7
20210126124207 23 6 2.0 3.0 0.00 0.00 0.00 88 1007.6
20210126123701 23 26 0.0 2.0 0.00 0.00 0.00 88 1007.8
20210126123205 23 26 0.0 0.0 0.00 0.00 0.00 88 1007.8
20210126122701 23 26 0.0 2.0 0.00 0.00 0.00 88 1007.8
20210126122202 23 5 0.0 1.0 0.00 0.00 0.00 88 1007.8
20210126121701 23 5 1.0 2.0 0.00 0.00 0.00 88 1007.8
20210126121204 23 48 0.0 0.0 0.00 0.00 0.00 88 1007.9
20210126120702 23 49 0.0 2.0 0.00 0.00 0.00 88 1007.7
20210126120206 23 40 1.0 3.0 0.00 0.00 0.00 88 1007.5
20210126115704 23 51 0.0 2.0 0.00 0.00 0.00 88 1007.4
20210126115216 23 40 0.0 1.0 0.00 0.00 0.00 88 1007.4
20210126114707 23 40 1.0 5.0 0.00 0.00 0.00 88 1007.5
20210126114210 23 50 2.0 3.0 0.00 0.00 0.00 88 1007.6
20210126113707 23 61 1.0 3.0 0.00 0.00 0.00 88 1007.8
20210126113206 23 24 1.0 2.0 0.00 0.00 0.00 88 1007.8
20210126112703 23 24 1.0 3.0 0.00 0.00 0.00 88 1007.8
20210126112227 23 63 0.0 3.0 0.00 0.00 0.00 88 1007.9
20210126111702 23 16 0.0 3.0 0.00 0.00 0.00 88 1007.9
20210126111208 23 44 0.0 1.0 0.00 0.00 0.00 88 1008.1
20210126110714 23 32 0.0 3.0 0.00 0.00 0.00 88 1008.0
20210126110205 23 34 0.0 3.0 0.00 0.00 0.00 88 1008.2
20210126105712 23 49 1.0 3.0 0.00 0.00 0.00 88 1008.1
20210126105203 23 44 1.0 3.0 0.00 0.00 0.00 88 1008.2
20210126104710 23 40 0.0 1.0 0.00 0.00 0.00 88 1008.3
20210126104208 23 42 0.0 3.0 0.00 0.00 0.00 88 1008.2
20210126103712 23 31 0.0 1.0 0.00 0.00 0.00 88 1008.3
20210126103203 23 52 0.0 2.0 0.00 0.00 0.00 88 1008.4
20210126102714 23 78 0.0 0.0 0.00 0.00 0.00 88 1008.3
20210126102204 23 78 0.0 1.0 0.00 0.00 0.00 88 1008.4
20210126101705 23 58 1.0 3.0 0.00 0.00 0.00 88 1008.4
20210126101202 23 50 1.0 2.0 0.00 0.00 0.00 88 1008.4
20210126100703 23 83 0.0 3.0 0.00 0.00 0.00 88 1008.3
20210126100208 23 43 1.0 3.0 0.00 0.00 0.00 87 1008.3
20210126095703 23 53 1.0 3.0 0.00 0.00 0.00 87 1008.3
20210126095206 23 54 0.0 3.0 0.00 0.00 0.00 87 1008.4
20210126094705 23 47 2.0 5.0 0.00 0.00 0.00 87 1008.3
20210126094202 23 52 3.0 6.0 0.00 0.00 0.00 86 1008.2
20210126093701 23 71 1.0 3.0 0.00 0.00 0.00 86 1008.2
20210126093202 23 55 2.0 3.0 0.00 0.00 0.00 86 1008.3
20210126092705 23 68 3.0 6.0 0.00 0.00 0.00 85 1008.4
20210126092202 23 38 2.0 5.0 0.00 0.00 0.00 85 1008.4
20210126091702 23 74 2.0 3.0 0.00 0.00 0.00 85 1008.4
20210126091204 23 36 2.0 5.0 0.00 0.00 0.00 84 1008.4
20210126090704 23 56 2.0 3.0 0.00 0.00 0.00 84 1008.4
20210126090204 23 52 2.0 3.0 0.00 0.00 0.00 84 1008.4
20210126085707 23 92 1.0 3.0 0.00 0.00 0.00 83 1008.5
20210126085202 23 65 1.0 3.0 0.00 0.00 0.00 83 1008.4
20210126084702 23 90 3.0 5.0 0.00 0.00 0.00 83 1008.3
20210126084207 23 43 3.0 5.0 0.00 0.00 0.00 83 1008.2
20210126083714 23 49 2.0 3.0 0.00 0.00 0.00 83 1008.4
20210126083203 23 50 1.0 2.0 0.00 0.00 0.00 83 1008.5
20210126082704 23 84 0.0 3.0 0.00 0.00 0.00 83 1008.5
20210126082202 23 52 0.0 2.0 0.00 0.00 0.00 83 1008.4
20210126081701 23 58 0.0 3.0 0.00 0.00 0.00 83 1008.3
20210126081205 23 52 2.0 3.0 0.00 0.00 0.00 84 1008.3
20210126080704 23 57 1.0 3.0 0.00 0.00 0.00 83 1008.3
20210126080201 23 61 0.0 2.0 0.00 0.00 0.00 83 1008.3
20210126075703 23 67 2.0 3.0 0.00 0.00 0.00 83 1008.2
20210126075203 23 58 3.0 5.0 0.00 0.00 0.00 83 1008.2
20210126074702 23 33 1.0 3.0 0.00 0.00 0.00 83 1008.2
20210126074202 23 27 1.0 2.0 0.00 0.00 0.00 83 1008.2
20210126073703 23 40 0.0 0.0 0.00 0.00 0.00 83 1008.3
20210126073204 23 40 0.0 0.0 0.00 0.00 0.00 83 1008.4
20210126072706 23 40 0.0 0.0 0.00 0.00 0.00 83 1008.4
20210126072202 23 40 0.0 0.0 0.00 0.00 0.00 83 1008.5
20210126071704 23 40 0.0 0.0 0.00 0.00 0.00 83 1008.6
20210126071202 23 40 0.0 0.0 0.00 0.00 0.00 83 1008.6
20210126070702 23 40 0.0 2.0 0.00 0.00 0.00 83 1008.6
20210126070203 23 55 0.0 0.0 0.00 0.00 0.00 83 1008.7
20210126065706 23 55 0.0 0.0 0.00 0.00 0.00 83 1008.8
20210126065203 23 55 0.0 0.0 0.00 0.00 0.00 83 1008.9
20210126064704 23 55 0.0 0.0 0.00 0.00 0.00 83 1008.8
20210126064211 23 55 0.0 1.0 0.00 0.00 0.00 83 1008.9
20210126063702 23 55 0.0 1.0 0.00 0.00 0.00 83 1008.8
20210126063204 23 59 0.0 0.0 0.00 0.00 0.00 83 1008.9
20210126062701 23 39 0.0 0.0 0.00 0.00 0.00 83 1008.8
20210126062202 23 39 0.0 1.0 0.00 0.00 0.00 83 1008.8
20210126061702 23 33 0.0 2.0 0.00 0.00 0.00 83 1008.7
20210126061203 23 44 1.0 2.0 0.00 0.00 0.00 82 1008.7
20210126060702 23 60 1.0 3.0 0.00 0.00 0.00 83 1008.8
20210126060210 23 46 0.0 2.0 0.00 0.00 0.00 83 1008.6
20210126055712 23 355 1.0 3.0 0.00 0.00 0.00 83 1008.5
20210126055205 23 61 0.0 2.0 0.00 0.00 0.00 83 1008.7
20210126054704 23 41 0.0 3.0 0.00 0.00 0.00 83 1008.8
20210126054204 23 23 2.0 3.0 0.00 0.00 0.00 83 1008.7
20210126053707 23 58 1.0 3.0 0.00 0.00 0.00 83 1008.6
20210126053208 23 40 1.0 3.0 0.00 0.00 0.00 83 1008.7
20210126052703 23 33 0.0 3.0 0.00 0.00 0.00 83 1008.7
20210126052204 23 20 1.0 5.0 0.00 0.00 0.00 83 1008.6
20210126051703 23 43 2.0 5.0 0.00 0.00 0.00 83 1008.6
20210126051203 23 67 1.0 3.0 0.00 0.00 0.00 83 1008.7
20210126050702 23 47 1.0 3.0 0.00 0.00 0.00 82 1008.7
20210126050209 23 27 3.0 5.0 0.00 0.00 0.00 82 1008.7
20210126045702 23 61 1.0 3.0 0.00 0.00 0.00 82 1008.8
20210126045204 23 71 0.0 3.0 0.00 0.00 0.00 82 1008.7
20210126044703 23 39 2.0 5.0 0.00 0.00 0.00 82 1008.7
20210126044202 23 105 1.0 3.0 0.00 0.00 0.00 82 1008.7
20210126043702 23 65 3.0 6.0 0.00 0.00 0.00 82 1008.7
20210126043202 23 69 2.0 3.0 0.00 0.00 0.00 81 1008.7
20210126042702 23 62 3.0 5.0 0.00 0.00 0.00 81 1008.7
20210126042202 24 47 1.0 3.0 0.00 0.00 0.00 81 1008.7
20210126041703 24 43 2.0 5.0 0.00 0.00 0.00 81 1008.7
20210126041203 24 48 3.0 6.0 0.00 0.00 0.00 80 1008.7
20210126040701 24 45 2.0 5.0 0.00 0.00 0.00 80 1008.7
20210126040202 24 33 2.0 5.0 0.00 0.00 0.00 80 1008.6
20210126035702 24 18 3.0 6.0 0.00 0.00 0.00 80 1008.6
20210126035204 24 39 3.0 3.0 0.00 0.00 0.00 79 1008.6
20210126034703 24 46 3.0 8.0 0.00 0.00 0.00 79 1008.7
20210126034203 24 20 2.0 6.0 0.00 0.00 0.00 79 1008.7
20210126033704 24 36 5.0 7.0 0.00 0.00 0.00 79 1008.6
20210126033202 24 36 2.0 5.0 0.00 0.00 0.00 78 1008.6
20210126032702 24 37 3.0 6.0 0.00 0.00 0.00 78 1008.5
20210126032203 24 59 3.0 8.0 0.00 0.00 0.00 78 1008.5
20210126031702 25 46 4.0 6.0 0.00 0.00 0.00 77 1008.5
20210126031202 25 61 3.0 5.0 0.00 0.00 0.00 77 1008.5
20210126030704 25 61 2.0 5.0 0.00 0.00 0.00 76 1008.6
20210126030202 25 354 3.0 8.0 0.00 0.00 0.00 76 1008.6
20210126025703 25 45 1.0 5.0 0.00 0.00 0.00 76 1008.6
20210126025202 25 36 2.0 5.0 0.00 0.00 0.00 76 1008.5
20210126024703 25 44 2.0 5.0 0.00 0.00 0.00 75 1008.5
20210126024204 25 44 3.0 7.0 0.00 0.00 0.00 75 1008.5
20210126023702 25 50 4.0 9.0 0.00 0.00 0.00 75 1008.5
20210126023204 26 32 3.0 7.0 0.00 0.00 0.00 74 1008.4
20210126022705 26 66 1.0 3.0 0.00 0.00 0.00 74 1008.4
20210126022205 26 48 3.0 6.0 0.00 0.00 0.00 74 1008.4
20210126021708 26 42 1.0 5.0 0.00 0.00 0.00 74 1008.3
20210126021205 26 64 2.0 5.0 0.00 0.00 0.00 73 1008.3
20210126020704 26 49 2.0 5.0 0.00 0.00 0.00 73 1008.3
20210126020203 26 36 3.0 7.0 0.00 0.00 0.00 73 1008.2
20210126015702 26 33 4.0 6.0 0.00 0.00 0.00 73 1008.3
20210126015202 26 43 3.0 7.0 0.00 0.00 0.00 72 1008.2
20210126014707 26 47 3.0 6.0 0.00 0.00 0.00 72 1008.3
20210126014203 26 46 3.0 6.0 0.00 0.00 0.00 72 1008.2
20210126013704 26 69 2.0 3.0 0.00 0.00 0.00 72 1008.3
20210126013202 26 67 2.0 3.0 0.00 0.00 0.00 72 1008.2
20210126012703 26 92 2.0 7.0 0.00 0.00 0.00 72 1008.2
20210126012202 27 56 4.0 9.0 0.00 0.00 0.00 72 1008.0
20210126011702 27 47 3.0 7.0 0.00 0.00 0.00 71 1008.0
20210126011202 27 39 5.0 9.0 0.00 0.00 0.00 70 1008.0
20210126010703 27 65 5.0 10.0 0.00 0.00 0.00 69 1007.8
20210126010204 28 55 5.0 9.0 0.00 0.00 0.00 68 1007.7
20210126005704 28 47 4.0 10.0 0.00 0.00 0.00 68 1007.6
20210126005206 28 49 3.0 10.0 0.00 0.00 0.00 67 1007.5
20210126004703 28 55 3.0 8.0 0.00 0.00 0.00 66 1007.5
20210126004202 29 69 5.0 10.0 0.00 0.00 0.00 66 1007.4
20210126003712 29 53 6.0 12.0 0.00 0.00 0.00 65 1007.2
20210126003202 29 57 3.0 8.0 0.00 0.00 0.00 65 1007.2
20210126002702 30 45 3.0 7.0 0.00 0.00 0.00 65 1007.1
20210126002203 30 65 4.0 7.0 0.00 0.00 0.00 64 1007.0
20210126001704 30 63 3.0 8.0 0.00 0.00 0.00 64 1006.9
20210126001202 30 55 5.0 9.0 0.00 0.00 0.00 64 1006.8
20210126000702 30 64 3.0 9.0 0.00 0.00 0.00 63 1006.7
20210126000207 30 71 3.0 9.0 0.00 0.00 0.00 63 1006.6
20210125235702 30 56 3.0 8.0 0.00 0.00 0.00 63 1006.6
20210125235202 30 56 4.0 10.0 0.00 0.00 0.00 63 1006.4
20210125234732 31 54 5.0 8.0 0.00 0.00 0.00 62 1006.4
20210125234202 31 84 3.0 6.0 0.00 0.00 0.00 62 1006.4
20210125233703 31 80 3.0 6.0 0.00 0.00 0.00 61 1006.3
20210125233202 31 79 3.0 7.0 0.00 0.00 0.00 61 1006.3
20210125232703 31 85 3.0 6.0 0.00 0.00 0.00 61 1006.3
20210125232202 31 54 4.0 9.0 0.00 0.00 0.00 60 1006.2
20210125231702 32 60 3.0 8.0 0.00 0.00 0.00 60 1006.2
20210125231202 32 79 3.0 6.0 0.00 0.00 0.00 60 1006.1
20210125230704 32 55 6.0 10.0 0.00 0.00 0.00 59 1006.1
20210125230202 32 60 6.0 12.0 0.00 0.00 0.00 59 1006.0
20210125225705 33 46 5.0 10.0 0.00 0.00 0.00 59 1006.0
20210125225202 33 43 4.0 7.0 0.00 0.00 0.00 59 1005.8
20210125224704 33 88 2.0 7.0 0.00 0.00 0.00 59 1005.7
20210125224208 33 96 4.0 10.0 0.00 0.00 0.00 59 1005.7
20210125223702 34 90 2.0 8.0 0.00 0.00 0.00 58 1005.7
20210125223204 34 49 4.0 8.0 0.00 0.00 0.00 57 1005.7
20210125222703 34 31 3.0 5.0 0.00 0.00 0.00 57 1005.6
20210125222216 34 61 2.0 10.0 0.00 0.00 0.00 57 1005.5
20210125221706 34 87 3.0 8.0 0.00 0.00 0.00 57 1005.4
20210125221202 34 64 2.0 5.0 0.00 0.00 0.00 56 1005.4
20210125220703 34 68 3.0 6.0 0.00 0.00 0.00 57 1005.4
20210125220204 34 132 1.0 5.0 0.00 0.00 0.00 57 1005.4
20210125215703 34 41 3.0 8.0 0.00 0.00 0.00 57 1005.3
20210125215212 34 77 2.0 6.0 0.00 0.00 0.00 57 1005.3
20210125214702 34 54 4.0 7.0 0.00 0.00 0.00 57 1005.3
20210125214203 34 77 4.0 9.0 0.00 0.00 0.00 57 1005.2
20210125213704 34 72 2.0 7.0 0.00 0.00 0.00 57 1005.1
20210125213202 34 38 3.0 6.0 0.00 0.00 0.00 57 1005.0
20210125212707 35 60 2.0 5.0 0.00 0.00 0.00 56 1005.0
20210125212202 35 62 2.0 5.0 0.00 0.00 0.00 56 1004.9
20210125211703 35 48 4.0 6.0 0.00 0.00 0.00 56 1004.9
20210125211206 35 79 2.0 10.0 0.00 0.00 0.00 56 1004.8
20210125210702 35 58 2.0 7.0 0.00 0.00 0.00 55 1004.7
20210125210202 36 42 3.0 12.0 0.00 0.00 0.00 54 1004.6
20210125205702 36 55 5.0 10.0 0.00 0.00 0.00 53 1004.5
20210125205203 36 26 3.0 7.0 0.00 0.00 0.00 53 1004.5
20210125204718 36 61 2.0 7.0 0.00 0.00 0.00 54 1004.4
20210125204204 36 24 2.0 8.0 0.00 0.00 0.00 54 1004.4
20210125203704 35 41 5.0 8.0 0.00 0.00 0.00 54 1004.4
20210125203206 35 32 3.0 10.0 0.00 0.00 0.00 54 1004.3
20210125202703 35 63 3.0 9.0 0.00 0.00 0.00 54 1004.3
20210125202205 35 79 0.0 5.0 0.00 0.00 0.00 54 1004.3
20210125201704 35 63 4.0 9.0 0.00 0.00 0.00 54 1004.3
20210125201203 35 40 2.0 9.0 0.00 0.00 0.00 55 1004.2
20210125200704 35 2 3.0 9.0 0.00 0.00 0.00 55 1004.3
20210125200203 35 356 3.0 8.0 0.00 0.00 0.00 55 1004.3
20210125195704 35 44 2.0 6.0 0.00 0.00 0.00 55 1004.4
20210125195207 35 62 3.0 5.0 0.00 0.00 0.00 56 1004.4
20210125194712 35 60 5.0 10.0 0.00 0.00 0.00 56 1004.5
20210125194203 35 45 4.0 12.0 0.00 0.00 0.00 56 1004.5
20210125193706 35 51 4.0 8.0 0.00 0.00 0.00 56 1004.5
20210125193203 35 11 2.0 7.0 0.00 0.00 0.00 56 1004.6
20210125192705 35 33 2.0 6.0 0.00 0.00 0.00 55 1004.6
20210125192203 35 342 3.0 9.0 0.00 0.00 0.00 55 1004.8
20210125191702 35 81 2.0 8.0 0.00 0.00 0.00 57 1004.8
20210125191204 34 5 5.0 9.0 0.00 0.00 0.00 57 1004.9
20210125190702 34 352 2.0 5.0 0.00 0.00 0.00 58 1005.0
20210125190213 34 76 2.0 3.0 0.00 0.00 0.00 58 1005.1
20210125185705 34 357 1.0 3.0 0.00 0.00 0.00 58 1005.2
20210125185202 34 354 5.0 10.0 0.00 0.00 0.00 58 1005.3
20210125184703 34 7 1.0 3.0 0.00 0.00 0.00 58 1005.3
20210125184205 34 2 5.0 9.0 0.00 0.00 0.00 60 1005.4
20210125183705 33 346 1.0 10.0 0.00 0.00 0.00 59 1005.6
20210125183202 33 17 1.0 9.0 0.00 0.00 0.00 60 1005.7
20210125182702 33 354 3.0 12.0 0.00 0.00 0.00 60 1005.8
20210125182207 33 333 5.0 10.0 0.00 0.00 0.00 59 1005.9
20210125181706 34 2 3.0 8.0 0.00 0.00 0.00 59 1006.0
20210125181203 33 12 3.0 8.0 0.00 0.00 0.00 60 1006.1
20210125180705 33 26 1.0 6.0 0.00 0.00 0.00 60 1006.0
20210125180205 33 6 5.0 12.0 0.00 0.00 0.00 61 1006.0
20210125175703 33 28 2.0 7.0 0.00 0.00 0.00 62 1006.1
20210125175204 32 56 3.0 9.0 0.00 0.00 0.00 63 1006.2
20210125174703 32 43 5.0 10.0 0.00 0.00 0.00 63 1006.3
20210125174203 32 61 3.0 10.0 0.00 0.00 0.00 63 1006.3
20210125173710 32 80 3.0 10.0 0.00 0.00 0.00 63 1006.3
20210125173202 32 65 4.0 7.0 0.00 0.00 0.00 62 1006.3
20210125172702 32 63 4.0 8.0 0.00 0.00 0.00 62 1006.3
20210125172204 32 40 2.0 10.0 0.00 0.00 0.00 62 1006.4
20210125171707 32 53 2.0 10.0 0.00 0.00 0.00 63 1006.3
20210125171203 31 57 2.0 6.0 0.00 0.00 0.00 66 1006.2
20210125170712 31 57 1.0 3.0 0.00 0.00 0.00 67 1006.1
20210125170209 31 51 1.0 3.0 0.00 0.00 0.00 68 1006.1
20210125165704 31 58 1.0 2.0 0.00 0.00 0.00 71 1006.1
20210125165203 30 109 0.0 2.0 0.00 0.00 0.00 73 1006.0
20210125164721 30 109 1.0 3.0 0.00 0.00 0.00 76 1006.0
20210125164202 29 60 0.0 2.0 0.00 0.00 0.00 78 1006.0
20210125163703 28 37 0.0 3.0 0.00 0.00 0.00 80 1005.9
20210125163203 28 44 1.0 3.0 0.00 0.00 0.00 81 1005.9
20210125162702 27 69 0.0 2.0 0.00 0.00 0.00 82 1005.8
20210125162209 27 69 0.0 1.0 0.00 0.00 0.00 84 1005.8
20210125161702 27 69 1.0 2.0 0.00 0.00 0.00 85 1005.8
20210125161202 26 146 0.0 2.0 0.00 0.00 0.00 86 1005.9
20210125160705 26 146 0.0 1.0 0.00 0.00 0.00 87 1005.8
20210125160205 25 146 0.0 1.0 0.00 0.00 0.00 87 1005.8
20210125155702 25 205 0.0 0.0 0.00 0.00 0.00 88 1005.8
20210125155203 25 205 0.0 0.0 0.00 0.00 0.00 88 1005.8
20210125154712 24 205 0.0 0.0 0.00 0.00 0.00 88 1005.8
20210125154204 24 205 0.0 1.0 0.00 0.00 0.00 88 1005.8
20210125153702 24 180 1.0 2.0 0.00 0.00 0.00 88 1005.8
20210125153203 24 262 1.0 3.0 0.00 0.00 0.00 88 1005.9
20210125152704 24 222 1.0 3.0 0.00 0.00 0.00 88 1005.9
20210125152203 24 200 0.0 3.0 0.00 0.00 0.00 88 1005.8